Location: Gaast
(52.9002°N, 5.8891°E)
Time: 14:50:36
(UTC+00:00)

ACS3 Solar Sail - Pass Details

Date: 27 January 2026
Orbit: 898 x 968 km, 97.2° (Epoch: 17 February)

Event Time Altitude Azimuth Distance (km) Brightness Sun altitude
Rises 03:49:43 0° 7° (N) 3,626 5.0 -32.5°
Reaches altitude 10° 03:52:40 10° 354° (N) 2,663 4.1 -32.1°
Enters shadow 03:53:12 12° 350° (N) 2,512 3.9 -32.0°
